CZ-4C R/B

Satellite information

Favourite Embed

Satellite Type and Status

ROCKET BODYIN ORBIT

Key statistics

Satellite CZ-4C R/B at a glance.

Uptime

5667

Days in orbit

Revolutions

≈ 13.7

Per day

Orbit

LEO

Low Earth Orbit

Inclination

63.4

Latest

Satellite identification and parameters

Extended collection of information and parameters for CZ-4C R/B.

Object identification

Identified? True

Debris? False

Object name: CZ-4C R/B

International designator: 2010-009D

Object number (NORAD): 36416

Object ID (CCSDS): 36416

Country: PEOPLES REPUBLIC OF CHINA (PRC)

Current information (Y/N): Y

RCS size: LARGE

Orbital parameters

Period: 104.928 minutes

Inclination: 63.39 deg

SMA: 7369.221 km

Apoapsis: 1487.715 km

Periapsis: 494.457 km

RAAN: 90.0813 deg

Eccentricy: 0.06739236

Argument of periapsis: 1.4307 deg

Mean anomaly: 358.8458 deg

Mean motion: 13.72367463 rev/day

Mean motion (dot): 0.00000741 rev/day2

B* drag term: 0.0001783969 1/REarth

Two-line elements (TLE)

Creation date: Sept. 8, 2025, 6:18 p.m.

Reference frame: TEME

Reference center: EARTH

Epoch: Sept. 8, 2025, 6:58 a.m. UTC

TLE line 0: 0 CZ-4C R/B

TLE line 1: 1 36416U 10009D 25251.29079415 .00000741 00000-0 17840-3 0 9997

TLE line 2: 2 36416 63.3900 90.0813 0673924 1.4307 358.8458 13.72367463775888

Live tracking on map

Real-time ground track for satellite CZ-4C R/B.

In-orbit conjunctions

A list of the most updated potential collisions computed for object CZ-4C R/B.

Target Orbit TCA Probability of collision Miss distance Type
COSMOS 1420 LEO 2025-09-11 15:43:06 0.002845985 360.0 (m) PAYLOAD
NIMBUS 2 DEB SSO 2025-08-02 14:00:38 0.0001866007 510.0 (m) DEBRIS
PICOSAT 5 SSO 2024-10-20 11:13:01 0.0002260224 541.0 (m) PAYLOAD

Associated space launch

CZ-4C R/B was lifted into orbit during the mission ‘Long March 4C | Yaogan-9’, on board a Long March 4C space rocket.

The launch took place on March 5, 2010, 4:55 a.m. from Launch Area 4 (SLS-2 / 603).

For more information about the launch, click the button.

Launch to space Long March 4C | Yaogan-9
Long March 4C | Yaogan-9

Agency: N/A

Status: Launch Successful

Launch date: March 5, 2010, 4:55 a.m. UTC

Rocket: Long March 4C

Launch pad: Launch Area 4 (SLS-2 / 603)

Location: Jiuquan Satellite Launch Center, People's Republic of China

...

Latest news about this satellite

There are no fresh news available about this satellite. Check back as we update our databases every day.


Newsletter sign-up

Weekly statistics, charts and insights to help you stay on top of the space industry.